Zurück zum Katalog

STARLINK-35352

AktivKommunikationVLEO
NORAD 66177·PAYLOAD·🇺🇸 United States

Gestartet Oct 26, 2025 von Cape Canaveral Space Force Station

Loading…

Nächste Überflüge (nächste 24 Stunden)

TLE

AktuellSource: Space-Track

Epoche: Sep 14, 2026, 21:31 UTC

1 66177U 25243A   26257.89701001  .00033206  00000-0  98861-3 0  9990
2 66177  53.1581  84.1786 0000789 110.2083 249.9004 15.34430578 49657

Verfolge STARLINK-35352 in Echtzeit mit AllMySat

Download on the App Store